Angelina County Airport Lufkin US
ICAO: KLFK
IATA: LFK
Category: Medium
Scheduled Services: No

Elevation: 296 ft
TransAlt. 18000 ft.

Airport Communications:
ASOS:120.625
HOUSTON CNTR:134.8
MONTGOMERY CO RDO:122.2
CTAF/UNICOM:123

KLFK Zoom In..

If you have problems with the map follow the link
https://www.worldairports.se/pages/airport.php?
ICAO=KLFK

Runways:

(A) RW 07 length 5400 ft width 100 ft
ILS 111.30 / hdg 70

(B) RW 15 length 4311 ft width 100 ft
---- / hdg 155

(C) RW 25 length 5400 ft width 100 ft
---- / hdg 250

(D) RW 33 length 4311 ft width 100 ft
---- / hdg 335

Location; KLFK
Day. 18 / Time. 01.53 Zulu
* Altimeter: 30.00
* Temperature: 08° c. 46.4°f.
* Wind from: 010° Speed 04 kn.
Dewpoint: 03° c.
Visibility: 10 Statute Miles.
Clouds: Clear (automated report).

KLFK 180153Z AUTO 01004KT 10SM CLR 08/03 A3000 RMK AO2 SLP157 T00780033


Wind From 010°
Speed 04 kn.

 
 
jpsmedia.com for Web Design worldairports.se 2019   terms of use